Tracking 33198 objects as of 13-Feb-2026
HD Live streaming from Space Station
objects crossing your sky now

ONEWEB-0267

Track ONEWEB-0267 now!
10-day predictions
ONEWEB-0267 is classified as:


NORAD ID: 48985
Int'l Code: 2021-061U
Perigee: 1,203.9 km
Apogee: 1,205.9 km
Inclination: 87.9 °
Period: 109.4 minutes
Semi major axis: 7575 km
RCS: Unknown
Launch date: July 1, 2021
Source: United Kingdom (UK)
Launch site: VOSTOCHNY COSMODROME (VOSTO)
Your satellite tracking list
Your tracking list is empty




NASA's NSSDC Master Catalog

Two Line Element Set (TLE):
1 48985U 21060U   26044.03771828  .00000137  00000-0  32472-3 0  9997
2 48985  87.9002 253.4808 0001356  97.3537 262.7748 13.16594916223256
Source of the keplerian elements: AFSPC